Date String (YYYY-MM-DD hh:mm:ss) UTC,Instrument flags,Ambient pressure (hPa),Sample flow (lpm),Bypass flow (lpm),Sample temperature (°C),Ambient temperature (°C),ASC tube jacket temperature (°C),LED temperature (°C),Box temperature (°C),Sample RH (%),Span deviation,Mass concentration (μg/m³),Mass concentration (μg/m³),Mass concentration (μg/m³)
DateTimeUTC,F1_M11,P_M11,Q1_M11,Q2_M11,T1_M11,T2_M11,T3_M11,T4_M11,T5_M11,U1_M11,ZSPAN_M11,X2_M11,X0_M11,X1_M11
2023-02-04 09:00:00,,0824.3,4.98,0.00,23.3,21.9,00.0,32.2,25.1,05.0,0000.0,0001.65,0004.07,0000.58
2023-02-04 09:01:00,,0824.3,4.98,0.00,23.3,21.9,00.0,32.2,25.1,05.0,0000.0,0001.62,0004.03,0000.56
2023-02-04 09:02:00,,0824.3,5.02,0.00,23.3,21.9,00.0,32.2,25.1,04.9,0000.0,0001.50,0003.82,0000.53
2023-02-04 09:03:00,,0824.5,5.03,0.00,23.3,21.9,00.0,32.2,25.1,04.9,0000.0,0001.40,0003.53,0000.52
2023-02-04 09:04:00,,0824.4,4.99,0.00,23.3,21.9,00.0,32.2,25.1,05.0,0000.0,0001.35,0003.24,0000.51
2023-02-04 09:05:00,,0824.2,4.96,0.00,23.3,21.9,00.0,32.2,25.1,04.9,0000.0,0001.26,0002.92,0000.50
2023-02-04 09:06:00,,0824.2,5.02,0.00,23.3,22.0,00.0,32.2,25.1,04.6,0000.0,0001.25,0002.96,0000.47
2023-02-04 09:07:00,,0824.1,5.03,0.00,23.3,22.0,00.0,32.2,25.2,04.4,0000.0,0001.27,0003.11,0000.46
2023-02-04 09:08:00,,0824.1,4.97,0.00,23.3,22.0,00.0,32.2,25.2,04.5,0000.0,0001.21,0002.94,0000.46
2023-02-04 09:09:00,,0824.1,4.99,0.00,23.3,22.0,00.0,32.2,25.2,04.5,0000.0,0001.14,0002.69,0000.44
2023-02-04 09:10:00,,0824.1,5.03,0.00,23.3,22.0,00.0,32.2,25.1,04.3,0000.0,0001.15,0002.66,0000.44
2023-02-04 09:11:00,,0824.1,5.01,0.00,23.3,22.0,00.0,32.2,25.1,04.4,0000.0,0001.18,0002.79,0000.44
2023-02-04 09:12:00,,0824.1,4.97,0.00,23.3,22.0,00.0,32.2,25.1,04.5,0000.0,0001.16,0002.79,0000.45
2023-02-04 09:13:00,,0824.1,5.00,0.00,23.3,22.0,00.0,32.2,25.1,04.5,0000.0,0001.22,0002.92,0000.45
2023-02-04 09:14:00,,0824.1,5.03,0.00,23.4,22.1,00.0,32.2,25.1,04.5,0000.0,0001.27,0003.02,0000.45
2023-02-04 09:15:00,,0824.1,5.01,0.00,23.4,22.1,00.0,32.2,25.1,04.4,0000.0,0001.26,0003.03,0000.45
2023-02-04 09:16:00,,0824.1,4.94,0.00,23.4,22.1,00.0,32.2,25.1,04.4,0000.0,0001.30,0003.23,0000.46
2023-02-04 09:17:00,,0824.1,5.01,0.00,23.4,22.1,00.0,32.2,25.1,05.0,0000.0,0001.30,0003.37,0000.47
2023-02-04 09:18:00,,0824.1,5.02,0.00,23.4,22.1,00.0,32.2,25.2,05.1,0000.0,0001.30,0003.34,0000.47
2023-02-04 09:19:00,,0824.1,5.00,0.00,23.4,22.2,00.0,32.2,25.2,05.2,0000.0,0001.32,0003.52,0000.48
2023-02-04 09:20:00,,0824.1,4.96,0.00,23.4,22.2,00.0,32.2,25.2,05.0,0000.0,0001.37,0003.70,0000.48
2023-02-04 09:21:00,,0824.1,5.03,0.00,23.4,22.2,00.0,32.2,25.1,04.8,0000.0,0001.40,0003.78,0000.49
2023-02-04 09:22:00,,0824.1,5.02,0.00,23.4,22.2,00.0,32.2,25.2,04.8,0000.0,0001.38,0003.74,0000.50
2023-02-04 09:23:00,,0824.1,4.96,0.00,23.4,22.2,00.0,32.2,25.2,04.7,0000.0,0001.39,0004.04,0000.50
2023-02-04 09:24:00,,0824.1,5.00,0.00,23.4,22.2,00.0,32.2,25.3,04.6,0000.0,0001.37,0004.39,0000.50
2023-02-04 09:25:00,,0824.0,5.03,0.00,23.5,22.2,00.0,32.2,25.3,04.6,0000.0,0001.35,0004.37,0000.51
2023-02-04 09:26:00,,0824.0,4.98,0.00,23.5,22.2,00.0,32.3,25.3,04.4,0000.0,0001.31,0004.29,0000.50
2023-02-04 09:27:00,,0824.1,4.99,0.00,23.5,22.2,00.0,32.3,25.3,04.4,0000.0,0001.30,0004.18,0000.49
2023-02-04 09:28:00,,0824.0,5.04,0.00,23.5,22.3,00.0,32.3,25.2,04.2,0000.0,0001.27,0004.86,0000.48
2023-02-04 09:29:00,,0824.0,5.00,0.00,23.5,22.3,00.0,32.3,25.3,04.1,0000.0,0001.23,0005.45,0000.48
2023-02-04 09:30:00,,0824.0,4.97,0.00,23.5,22.3,00.0,32.3,25.4,04.0,0000.0,0001.27,0005.38,0000.48
2023-02-04 09:31:00,,0824.0,5.03,0.00,23.5,22.3,00.0,32.3,25.4,04.1,0000.0,0001.23,0005.21,0000.49
2023-02-04 09:32:00,,0824.0,5.03,0.00,23.5,22.3,00.0,32.3,25.4,04.1,0000.0,0001.21,0005.23,0000.49
2023-02-04 09:33:00,,0824.0,4.97,0.00,23.6,22.3,00.0,32.3,25.4,04.0,0000.0,0001.31,0005.98,0000.49
2023-02-04 09:34:00,,0824.1,5.00,0.00,23.6,22.3,00.0,32.3,25.4,03.9,0000.0,0001.40,0006.27,0000.51
2023-02-04 09:35:00,,0824.1,5.04,0.00,23.6,22.3,00.0,32.3,25.5,03.9,0000.0,0001.49,0006.21,0000.52
2023-02-04 09:36:00,,0824.0,4.97,0.00,23.6,22.4,00.0,32.3,25.5,03.9,0000.0,0001.52,0006.61,0000.52
2023-02-04 09:37:00,,0824.1,4.97,0.00,23.6,22.4,00.0,32.4,25.5,03.9,0000.0,0001.57,0007.03,0000.55
2023-02-04 09:38:00,,0824.0,5.03,0.00,23.6,22.4,00.0,32.4,25.5,03.9,0000.0,0001.64,0007.18,0000.56
2023-02-04 09:39:00,,0824.1,5.02,0.00,23.6,22.4,00.0,32.4,25.5,03.9,0000.0,0001.66,0006.51,0000.57
2023-02-04 09:40:00,,0824.0,4.95,0.00,23.6,22.4,00.0,32.4,25.5,03.8,0000.0,0001.67,0005.48,0000.57
2023-02-04 09:41:00,,0824.0,5.02,0.00,23.6,22.4,00.0,32.4,25.5,03.8,0000.0,0001.69,0005.46,0000.58
2023-02-04 09:42:00,,0824.0,5.03,0.00,23.6,22.4,00.0,32.4,25.5,03.8,0000.0,0001.74,0005.57,0000.57
2023-02-04 09:43:00,,0824.0,4.97,0.00,23.6,22.4,00.0,32.4,25.5,03.8,0000.0,0001.75,0006.69,0000.58
2023-02-04 09:44:00,,0823.8,4.99,0.00,23.6,22.4,00.0,32.4,25.5,03.8,0000.0,0001.72,0006.09,0000.59
2023-02-04 09:45:00,,0823.9,5.04,0.00,23.7,22.4,00.0,32.4,25.5,03.9,0000.0,0001.72,0005.91,0000.57
2023-02-04 09:46:00,,0824.0,4.99,0.00,23.7,22.4,00.0,32.4,25.5,03.9,0000.0,0001.70,0006.43,0000.57
2023-02-04 09:47:00,,0824.0,4.98,0.00,23.7,22.4,00.0,32.4,25.5,03.8,0000.0,0001.71,0006.65,0000.57
2023-02-04 09:48:00,,0824.0,5.03,0.00,23.7,22.4,00.0,32.4,25.5,03.8,0000.0,0001.72,0007.48,0000.56
2023-02-04 09:49:00,,0823.9,5.00,0.00,23.7,22.4,00.0,32.4,25.5,03.8,0000.0,0001.73,0007.53,0000.56
2023-02-04 09:50:00,,0823.8,4.97,0.00,23.7,22.4,00.0,32.5,25.5,03.8,0000.0,0001.77,0007.64,0000.56
2023-02-04 09:51:00,,0823.8,5.03,0.00,23.7,22.5,00.0,32.5,25.5,03.9,0000.0,0001.83,0007.78,0000.56
2023-02-04 09:52:00,,0823.7,5.01,0.00,23.7,22.5,00.0,32.5,25.5,03.9,0000.0,0001.88,0008.35,0000.56
2023-02-04 09:53:00,,0823.8,4.96,0.00,23.7,22.5,00.0,32.5,25.5,04.0,0000.0,0001.85,0008.44,0000.56
2023-02-04 09:54:00,,0823.8,5.03,0.00,23.7,22.5,00.0,32.5,25.5,03.9,0000.0,0001.88,0008.17,0000.56
2023-02-04 09:55:00,,0823.9,5.02,0.00,23.7,22.4,00.0,32.5,25.5,04.5,0000.0,0001.90,0007.94,0000.55
2023-02-04 09:56:00,,0823.8,4.98,0.00,23.7,22.4,00.0,32.5,25.5,05.5,0000.0,0001.80,0007.70,0000.54
2023-02-04 09:57:00,,0823.8,4.98,0.00,23.7,22.4,00.0,32.5,25.5,05.4,0000.0,0001.75,0007.32,0000.53
2023-02-04 09:58:00,,0823.8,5.02,0.00,23.7,22.4,00.0,32.5,25.5,05.1,0000.0,0001.72,0006.60,0000.53
2023-02-04 09:59:00,,0823.7,5.01,0.00,23.7,22.4,00.0,32.5,25.5,05.0,0000.0,0001.75,0005.39,0000.53
